Location: Unspecified
(48.5539°N, 71.6350°W)
Time: 13:03:00
(UTC-04:00)

ISS - All Passes

Search period start: 23 May 2018 00:00
Search period end: 02 June 2018 00:00
Orbit: 402 x 407 km, 51.6° (Epoch: 24 May)

Date Brightness Start Highest point End Pass type
(mag) Time Alt. Az. Time Alt. Az. Time Alt. Az.
23 May - 00:50:06 10° WNW 00:53:18 50° N 00:56:30 10° E visible
23 May - 02:26:38 10° WNW 02:29:53 62° SSW 02:33:06 10° SE visible
23 May - 04:04:22 10° WSW 04:05:50 12° SW 04:07:18 10° SSW visible
23 May - 20:45:13 10° SSW 20:48:01 26° SE 20:50:49 10° E daylight
23 May - 22:21:01 10° WSW 22:24:17 75° NNW 22:27:33 10° ENE visible
23 May - 23:57:50 10° WNW 00:01:01 46° N 00:04:12 10° ENE visible
24 May - 01:34:26 10° WNW 01:37:43 88° NNE 01:40:58 10° ESE visible
24 May - 03:11:22 10° W 03:13:53 20° SW 03:16:23 10° S visible
24 May - 19:53:54 10° S 19:56:01 16° SE 19:58:09 10° E daylight
24 May - 21:28:49 10° WSW 21:32:05 78° SSE 21:35:21 10° ENE visible
24 May - 23:05:32 10° W 23:08:44 47° N 23:11:54 10° ENE visible
25 May - 00:42:13 10° WNW 00:45:29 65° NNE 00:48:44 10° E visible
25 May - 02:18:52 10° W 02:21:51 33° SW 02:24:49 10° SSE visible
25 May - 20:36:44 10° SW 20:39:56 50° SSE 20:43:07 10° ENE daylight
25 May - 22:13:12 10° W 22:16:26 54° N 22:19:39 10° ENE visible
25 May - 23:49:59 10° WNW 23:53:12 52° N 23:56:26 10° E visible
26 May - 01:26:31 10° WNW 01:29:44 53° SSW 01:32:55 10° SE visible
26 May - 03:05:11 10° SW 03:05:36 10° SW 03:06:01 10° SW night (unlit)
26 May - 19:44:52 10° SSW 19:47:48 31° SE 19:50:45 10° E daylight
26 May - 21:20:53 10° W 21:24:09 67° NNW 21:27:25 10° ENE visible
26 May - 22:57:43 10° WNW 23:00:54 47° N 23:04:05 10° E visible
27 May - 00:34:16 10° WNW 00:37:34 81° SSW 00:40:49 10° ESE visible
27 May - 02:11:24 10° W 02:13:38 17° SW 02:15:53 10° S visible
27 May - 18:53:19 10° S 18:55:45 19° SE 18:58:11 10° E daylight
27 May - 20:28:36 10° WSW 20:31:54 88° SE 20:35:10 10° ENE daylight
27 May - 22:05:23 10° WNW 22:08:34 46° N 22:11:45 10° ENE visible
27 May - 23:42:02 10° WNW 23:45:18 72° NNE 23:48:34 10° ESE visible
28 May - 01:18:45 10° W 01:21:36 28° SW 01:24:26 10° SSE visible
28 May - 18:02:30 10° SSE 18:03:45 12° SE 18:04:59 10° ESE daylight
28 May - 19:36:26 10° SW 19:39:40 59° SSE 19:42:54 10° ENE daylight
28 May - 21:13:00 10° W 21:16:14 51° N 21:19:26 10° ENE visible
28 May - 22:49:46 10° WNW 22:53:00 56° NNE 22:56:14 10° E visible
29 May - 00:26:20 10° WNW 00:29:29 44° SSW 00:32:36 10° SE visible
29 May - 18:44:27 10° SW 18:47:30 37° SSE 18:50:33 10° ENE daylight
29 May - 20:20:38 10° W 20:23:54 61° NNW 20:27:09 10° ENE daylight
29 May - 21:57:28 10° WNW 22:00:40 48° N 22:03:51 10° E visible
29 May - 23:34:00 10° WNW 23:37:17 71° SSW 23:40:31 10° ESE visible
30 May - 01:11:25 10° WSW 01:13:17 14° SW 01:15:08 10° S visible
30 May - 17:52:43 10° SSW 17:55:22 23° SE 17:58:02 10° E daylight
30 May - 19:28:18 10° WSW 19:31:35 82° NNW 19:34:52 10° ENE daylight
30 May - 21:05:06 10° WNW 21:08:17 46° N 21:11:28 10° ENE daylight
30 May - 22:41:43 10° WNW 22:45:00 80° NNE 22:48:17 10° ESE visible
31 May - 00:18:32 10° W 00:21:13 23° SW 00:23:54 10° SSE visible
31 May - 17:01:30 10° S 17:03:19 14° SE 17:05:07 10° ESE daylight
31 May - 18:36:03 10° WSW 18:39:18 69° SSE 18:42:34 10° ENE daylight
31 May - 20:12:43 10° W 20:15:55 49° N 20:19:06 10° ENE daylight
31 May - 21:49:25 10° WNW 21:52:41 61° NNE 21:55:56 10° E visible
31 May - 23:26:01 10° WNW 23:29:05 38° SSW 23:32:08 10° SE visible
01 Jun - 17:43:57 10° SW 17:47:04 43° SSE 17:50:13 10° ENE daylight
01 Jun - 19:20:17 10° W 19:23:32 57° NNW 19:26:46 10° ENE daylight
01 Jun - 20:57:05 10° WNW 21:00:18 50° N 21:03:31 10° E daylight
01 Jun - 22:33:38 10° WNW 22:36:52 60° SSW 22:40:05 10° SE visible
